Meteo Giornale » Osservazioni meteo Brasile » Florianopolis Aeroporto
ore: 15:00 - Osservazioni Meteo Florianopolis Aeroporto
Lat. 27° 40' S Lon. 48° 33' W Alt. 5 metri s.l.m.
19 °C
Pioggia
Temp. 24 Ore
18 °C
20 °C
Nord/NOvest
13 Km/h
Dew point 19 °C
Umidità 100 %
Visibilità 6 Km
Il sole sorge alle ore 06:28
Il sole tramonta alle ore 18:00
| Data e Ora | Cielo e Fenomeni | T °C | DP °C | Um. % | Pres. hPa | Vis. km | Vento km/h | |
|---|---|---|---|---|---|---|---|---|
| Oggi h: 15:00 | Pioggia | 19 | 19 | 100 | 1011 | 6 | N/NO 13 | |
| Oggi h: 14:00 | Pioggia Foschia | 19 | 19 | 100 | 1011 | 5 | N/NO 16.7 | |
| Oggi h: 13:00 | Coperto | 19 | 19 | 100 | 1011 | 10 | N 5.5 | |
| Oggi h: 12:00 | Pioggia | 19 | 18 | 93 | 1012 | 10 | O/NO 11.1 | |
| Oggi h: 11:00 | Pioggia Foschia | 19 | 18 | 93 | 1014 | 4 | N 14.8 | |
| Oggi h: 10:00 | Pioggia Foschia | 18 | 18 | 100 | 1014 | 4 | N/NO 7.4 | |
| Oggi h: 09:00 | Temporale Foschia | 18 | 18 | 100 | 1014 | 5 | N 11.1 | |
| Oggi h: 08:08 | Temporale Foschia | 18 | 17 | 93 | 1015 | 4 | O/NO 13 | |
| Oggi h: 08:00 | Temporale | 18 | 17 | 93 | 1014 | 2 | O 11.1 | |
| Oggi h: 07:51 | Temporale | 18 | 18 | 100 | 1015 | 3 | O 14.8 | |
| Oggi h: 07:33 | Temporale | 18 | 18 | 100 | 1013 | 10 | N 3.7 | |
| Oggi h: 07:00 | Coperto | 18 | 18 | 100 | 1013 | 10 | N 5.5 | |
| Oggi h: 06:00 | Molto Nuvoloso | 18 | 17 | 93 | 1012 | 10 | N 5.5 | |
| Oggi h: 05:00 | Coperto | 18 | 18 | 100 | 1013 | 10 | N 3.7 | |
| Oggi h: 04:00 | Pioggia | 19 | 17 | 88 | 1013 | 10 | N 3.7 | |
| Oggi h: 03:00 | Coperto | 19 | 18 | 93 | 1013 | 10 | S 13 | |
| Oggi h: 02:00 | Temporale | 19 | 17 | 88 | 1014 | 6 | S 13 | |
| Oggi h: 01:00 | Molto Nuvoloso | 20 | 16 | 77 | 1014 | 10 | S 14.8 | |
| Oggi h: 00:00 | Temporale | 18 | 17 | 93 | 1015 | 6 | S/SE 11.1 | |
| Ieri h: 23:20 | Temporale | 18 | 17 | 93 | 1015 | 10 | S/SO 22.2 | |
| Ieri h: 23:07 | Temporale | 18 | 17 | 93 | 1015 | 4 | S 24 | |
| Ieri h: 23:00 | Temporale Foschia | 18 | 17 | 93 | 1017 | 4 | S/SO 18.5 | |
| Ieri h: 22:12 | Coperto | 18 | 17 | 93 | 1015 | 10 | O/SO 7.4 | |
| Ieri h: 22:00 | Temporale Foschia | 18 | 17 | 93 | 1014 | 5 | S 11.1 | |
| Ieri h: 21:45 | Temporale | 18 | 17 | 93 | 1015 | 2 | O 11.1 | |
| Ieri h: 21:28 | Temporale Foschia | 18 | 17 | 93 | 1014 | 4 | N 7.4 | |
| Ieri h: 21:00 | Coperto | 18 | 17 | 93 | 1015 | 10 | S 7.4 | |
| Ieri h: 20:00 | Coperto | 18 | 17 | 93 | 1015 | 10 | S 9.3 | |
| Ieri h: 19:00 | Coperto | 18 | 17 | 93 | 1014 | 10 | N 5.5 | |
| Ieri h: 18:00 | Coperto | 18 | 17 | 93 | 1014 | 10 | SO 7.4 | |
| Ieri h: 17:00 | Coperto | 18 | 17 | 93 | 1014 | 10 | S/SO 9.3 | |
| Ieri h: 16:00 | Foschia | 18 | 18 | 100 | 1014 | 5 | SE 7.4 | |



